Springfield, OH

4:19 AM EDT on March 24, 2017 (GMT -0400)
Springfield-Beckley Municipal

Weather History for KSGH - January, 2014

Change the Weather History Date:

Friday, January 10, 2014

  Actual Average (KFFO) Record (KFFO)
Temperature  
Mean Temperature 38 °F -  
Max Temperature 45 °F 34 °F 54 °F (2008)
Min Temperature 32 °F 19 °F -9 °F (1999)
Degree Days  
Heating Degree Days 28    
Moisture  
Dew Point 37 °F    
Average Humidity 99    
Maximum Humidity 100    
Minimum Humidity 92    
Precipitation  
Precipitation 0.05 in - - ()
Sea Level Pressure  
Sea Level Pressure 30.07 in    
Wind  
Wind Speed 9 mph (SSE)    
Max Wind Speed 16 mph    
Max Gust Speed -    
Visibility 3 miles    
Events Fog    
Averages and records for this station are not official NWS values.
T = Trace of Precipitation, MM = Missing Value Source: NWS Daily Summary

Daily Weather History Graph

Daily Weather History Graph

Search for Another Location

Airport or City:

Trip Planner

Search our weather history database for the weather conditions in past years. The results will help you decide how hot, cold, wet, or windy it might be!

Date:

Astronomy

Jan. 10, 2014 Rise Set
Actual Time 7:56 AM EST 5:29 PM EST
Civil Twilight 7:26 AM EST 5:59 PM EST
Nautical Twilight 6:52 AM EST 6:33 PM EST
Astronomical Twilight 6:20 AM EST 7:05 PM EST
Moon 1:32 PM EST (1/10) 3:03 AM EST (1/10)
Length of Visible Light 10h 33m
Length of Day
9h 33m
Waxing Gibbous, 75% of the Moon is Illuminated
Jan 10
Waxing Gibbous
Jan 15
Full
Jan 24
Last Quarter
Jan 30
New
Feb 6
First Quarter

Hourly Weather History & Observations

Time (EST) Temp. Windchill Dew Point Humidity Pressure Visibility Wind Dir Wind Speed Gust Speed Precip Events Conditions
12:56 AM 32.0 °F 24.8 °F 32.0 °F 100% 30.30 in 8.0 mi SSE 8.1 mph - 0.01 in   Overcast
1:56 AM 32.0 °F 26.4 °F 32.0 °F 100% 30.28 in 8.0 mi SSE 5.8 mph - 0.01 in   Overcast
2:36 AM 33.8 °F 28.6 °F 32.0 °F 93% 30.25 in 9.0 mi SSE 5.8 mph - 0.01 in   Mostly Cloudy
2:56 AM 32.9 °F 28.5 °F 32.0 °F 96% 30.29 in 9.0 mi SSE 4.6 mph - 0.01 in   Overcast
3:04 AM 33.8 °F 28.6 °F 32.0 °F 93% 30.26 in 9.0 mi SSE 5.8 mph - N/A   Overcast
3:42 AM 33.8 °F 29.6 °F 32.0 °F 93% 30.25 in 9.0 mi SSE 4.6 mph - 0.01 in   Overcast
3:56 AM 32.9 °F 28.5 °F 32.0 °F 96% 30.27 in 9.0 mi SSE 4.6 mph - 0.01 in   Overcast
4:56 AM 34.0 °F 26.6 °F 32.0 °F 92% 30.25 in 7.0 mi SSE 9.2 mph - 0.01 in   Overcast
5:04 AM 33.8 °F 26.4 °F 32.0 °F 93% 30.22 in 6.0 mi SSE 9.2 mph - N/A   Overcast
5:28 AM 33.8 °F 27.7 °F 33.8 °F 100% 30.21 in 6.0 mi SSE 6.9 mph - N/A   Overcast
5:56 AM 34.0 °F 28.0 °F 34.0 °F 100% 30.24 in 5.0 mi SSE 6.9 mph - N/A   Overcast
6:06 AM 33.8 °F 27.7 °F 33.8 °F 100% 30.20 in 4.0 mi SSE 6.9 mph - N/A   Overcast
6:36 AM 33.8 °F 27.7 °F 33.8 °F 100% 30.20 in 2.5 mi South 6.9 mph - N/A   Overcast
6:56 AM 34.0 °F 28.0 °F 34.0 °F 100% 30.24 in 2.0 mi South 6.9 mph - N/A   Overcast
7:22 AM 35.6 °F 29.9 °F 33.8 °F 93% 30.21 in 1.8 mi South 6.9 mph - N/A   Overcast
7:37 AM 35.6 °F 29.9 °F 33.8 °F 93% 30.21 in 1.0 mi SSE 6.9 mph - N/A   Overcast
7:56 AM 34.0 °F 28.0 °F 34.0 °F 100% 30.24 in 0.2 mi SSE 6.9 mph - N/A Fog Fog
8:08 AM 33.8 °F 27.7 °F 33.8 °F 100% 30.20 in 0.2 mi SSE 6.9 mph - N/A Fog Fog
8:56 AM 34.9 °F 28.3 °F 34.9 °F 100% 30.25 in 0.2 mi SSE 8.1 mph - N/A Fog Fog
9:56 AM 36.0 °F 29.6 °F 36.0 °F 100% 30.25 in 0.2 mi SE 8.1 mph - N/A Fog Fog
10:56 AM 36.0 °F 29.6 °F 36.0 °F 100% 30.24 in 0.5 mi SSE 8.1 mph - N/A Fog Fog
11:05 AM 35.6 °F 29.2 °F 35.6 °F 100% 30.20 in 0.2 mi SSE 8.1 mph - N/A Fog Fog
11:56 AM 36.0 °F 30.3 °F 36.0 °F 100% 30.20 in 0.2 mi SE 6.9 mph - N/A Fog Fog
12:56 PM 36.9 °F 30.1 °F 36.9 °F 100% 30.15 in 0.2 mi SSE 9.2 mph - N/A Fog Fog
1:56 PM 37.9 °F 30.5 °F 37.9 °F 100% 30.11 in 0.2 mi SE 11.5 mph - N/A Fog Fog
2:56 PM 38.8 °F 32.1 °F 38.8 °F 100% 30.07 in 0.2 mi SE 10.4 mph - N/A Fog Fog
3:56 PM 38.8 °F 32.1 °F 38.8 °F 100% 30.03 in 0.2 mi ESE 10.4 mph - N/A Fog Fog
4:56 PM 38.8 °F 32.1 °F 38.8 °F 100% 30.01 in 0.2 mi SE 10.4 mph - N/A Fog Fog
5:47 PM 39.2 °F 31.6 °F 39.2 °F 100% 29.94 in 0.2 mi SE 12.7 mph - 0.00 in Fog Fog
5:56 PM 39.9 °F 31.8 °F 39.9 °F 100% 29.96 in 0.2 mi SE 15.0 mph - 0.00 in Fog Fog
6:34 PM 39.2 °F 31.6 °F 39.2 °F 100% 29.92 in 0.5 mi SE 12.7 mph - N/A Fog Fog
6:56 PM 41.0 °F 33.1 °F 41.0 °F 100% 29.94 in 0.5 mi SSE 15.0 mph - N/A Fog Fog
7:05 PM 41.0 °F 32.8 °F 41.0 °F 100% 29.91 in 0.8 mi SE 16.1 mph - N/A   Overcast
7:15 PM 41.0 °F 33.9 °F 41.0 °F 100% 29.90 in 1.2 mi SE 12.7 mph - N/A   Overcast
7:32 PM 41.0 °F 33.5 °F 41.0 °F 100% 29.89 in 1.0 mi SSE 13.8 mph - N/A   Overcast
7:37 PM 41.0 °F 33.9 °F 41.0 °F 100% 29.89 in 1.5 mi SE 12.7 mph - N/A   Overcast
7:56 PM 41.0 °F 33.1 °F 41.0 °F 100% 29.89 in 1.5 mi SE 15.0 mph - N/A   Overcast
8:10 PM 42.8 °F 35.4 °F 42.8 °F 100% 29.88 in 2.0 mi SE 15.0 mph - N/A   Overcast
8:20 PM 41.0 °F 33.1 °F 41.0 °F 100% 29.87 in 1.5 mi SE 15.0 mph - N/A   Overcast
8:56 PM 41.9 °F 34.6 °F 41.9 °F 100% 29.86 in 1.5 mi SSE 13.8 mph - 0.00 in   Overcast
9:06 PM 42.8 °F 36.2 °F 42.8 °F 100% 29.85 in 1.2 mi SSE 12.7 mph - N/A   Overcast
9:16 PM 42.8 °F 36.2 °F 42.8 °F 100% 29.84 in 1.5 mi SSE 12.7 mph - N/A   Overcast
9:27 PM 42.8 °F 37.0 °F 42.8 °F 100% 29.84 in 2.5 mi SSE 10.4 mph - N/A   Overcast
9:41 PM 42.8 °F 36.6 °F 42.8 °F 100% 29.84 in 3.0 mi South 11.5 mph - N/A   Overcast
9:56 PM 43.0 °F 37.2 °F 43.0 °F 100% 29.86 in 4.0 mi SSE 10.4 mph - N/A   Overcast
10:56 PM 43.9 °F 37.5 °F 43.9 °F 100% 29.79 in 6.0 mi SSE 12.7 mph - 0.00 in   Overcast
11:56 PM 45.9 °F 40.8 °F 45.9 °F 100% 29.77 in 9.0 mi South 10.4 mph - N/A   Mostly Cloudy